This demonstration page uses our WeatherBlox Daily Observations layout. Learn more.

36.17497, -115.13722

Hourly Observations for June 18, 2015

Temp ( °F °C ) Dew Point ( °F °C ) Humidity (%) Winds ( mph kmh ) Pressure ( in mb ) Visibility ( mi km ) Precip ( " mm )
12:53 am 00:53 Clear 91 32.8 5 -15 4 4 SSW 15 24 29.78 1008 10 16.0934 0 0
1:53 am 01:53 Clear 89 31.7 12 -11.1 5 5 SW 12 19 29.77 1008 10 16.0934 0 0
2:53 am 02:53 Clear 86 30 17 -8.3 8 8 S 14 22 29.77 1008 10 16.0934 0 0
3:53 am 03:53 Clear 83 28.3 17 -8.3 8 8 Calm 29.78 1008 10 16.0934 0 0
4:53 am 04:53 Clear 80 26.7 16 -8.9 9 9 WNW 7 11 29.8 1009 10 16.0934 0 0
5:53 am 05:53 Sunny 76 24.4 16 -8.9 10 10 NW 8 13 29.82 1010 10 16.0934 0 0
6:53 am 06:53 Sunny 81 27.2 15 -9.4 8 8 NW 6 9 29.84 1011 10 16.0934 0 0
7:53 am 07:53 Sunny 84 28.9 17 -8.3 8 8 N 5 7 29.85 1011 10 16.0934 0 0
8:53 am 08:53 Sunny 89 31.7 16 -8.9 7 7 NNW 6 9 29.86 1011 10 16.0934 0 0
9:53 am 09:53 Sunny 91 32.8 11 -11.7 5 5 SSE 6 9 29.86 1011 10 16.0934 0 0
10:53 am 10:53 Sunny 96 35.6 7 -13.9 3 3 Calm 29.85 1011 10 16.0934 0 0
11:53 am 11:53 Sunny 99 37.2 2 -16.7 2 2 S 7 11 29.84 1010 10 16.0934 0 0
12:53 pm 12:53 Sunny 103 39.4 -8 -22.2 1 1 S 12 19 29.8 1009 10 16.0934 0 0
1:53 pm 13:53 Sunny 103 39.4 -4 -20 2 2 S 15 24 29.78 1008 10 16.0934 0 0
2:53 pm 14:53 Sunny 104 40 -6 -21.1 1 1 S 13 20 29.76 1008 10 16.0934 0 0
3:53 pm 15:53 Sunny 105 40.6 4 -15.6 2 2 S 15 24 29.73 1007 10 16.0934 0 0
4:53 pm 16:53 Sunny 105 40.6 -8 -22.2 1 1 S 6 9 29.72 1006 10 16.0934 0 0
5:53 pm 17:53 Sunny 105 40.6 -4 -20 2 2 WSW 13 20 29.71 1006 10 16.0934 0 0
6:53 pm 18:53 Sunny 104 40 6 -14.4 3 3 W 13 20 29.71 1006 10 16.0934 0 0
7:53 pm 19:53 Sunny 102 38.9 6 -14.4 3 3 WSW 10 17 29.71 1006 10 16.0934 0 0
8:53 pm 20:53 Clear 99 37.2 8 -13.3 3 3 W 12 19 29.72 1007 10 16.0934 0 0
9:53 pm 21:53 Clear 95 35 14 -10 5 5 Calm 29.74 1007 10 16.0934 0 0
10:53 pm 22:53 Clear 95 35 12 -11.1 5 5 N 3 6 29.74 1007 10 16.0934 0 0
11:53 pm 23:53 Clear 90 32.2 15 -9.4 6 6 S 6 9 29.74 1007 10 16.0934 0 0

Powered by AerisWeather